{"data":{"norad_id":66468,"intl_designator":"2025-262N","name":"STARLINK-35331","alt_names":[],"object_type":"PAYLOAD","status":"ACTIVE","operator":null,"country":"US","launch_date":"2025-11-15","launch_site_code":"AFETR","launch_vehicle":null,"mission":null,"orbit_class":"UNKNOWN","rcs_meters":null,"size_class":null,"mass_kg":null,"dimensions":null,"purposes":["comms"],"wikipedia_slug":null,"has_3d_model":false,"image_url":null,"decayed_at":null,"tle_current":{"epoch":"2026-05-24T22:30:14.985216Z","epoch_age_seconds":80749,"freshness":"FRESH","line1":"1 66468U 25262N   26144.93767344 -.00003684  00000+0 -12442-3 0  9995","line2":"2 66468  42.9979 225.8994 0001093 270.7607  89.3120 15.27577523 30564","mean_motion":15.27577523,"eccentricity":0.0001093,"inclination_deg":42.9979,"raan_deg":225.8994,"arg_perigee_deg":270.7607,"mean_anomaly_deg":89.312,"bstar":-0.00012442,"rev_number":3056,"period_min":94.266901569224,"perigee_km":482.30658462779,"apogee_km":483.80644152975,"semimajor_km":6861.1935130788,"source":"CELESTRAK","updated_at":"2026-05-25T13:38:21.216392Z"}}}